,�O�C���x,�����t���O,�O�C���x,�����t���O,�󒲎����x,�����t���O,�󒲎����x,�����t���O,��󒲎�,�����t���O,����,�����t���O
2004/7/1 0:00,27.7,0,63,0,30.4,0,51.3,0,30.6,0,25.9,0
2004/7/1 0:15,27.4,0,63,0,30.5,0,49.4,0,30.5,0,26,0
2004/7/1 0:30,27.3,0,64,0,30.4,0,47.9,0,30.2,0,26.3,0
2004/7/1 0:45,27.4,0,65,0,30.3,0,47.9,0,29.9,0,26.3,0
2004/7/1 1:00,27.4,0,66,0,30.4,0,51.4,0,29.7,0,26.4,0
2004/7/1 1:15,27.3,0,67,0,30.4,0,53.1,0,29.7,0,26.4,0
2004/7/1 1:30,27.4,0,67,0,30.4,0,54.4,0,29.7,0,26.5,0
2004/7/1 1:45,27.2,0,68,0,30.4,0,55.4,0,29.7,0,26.5,0
2004/7/1 2:00,27.1,0,68,0,30.5,0,56.1,0,29.7,0,26.6,0
2004/7/1 2:15,27.1,0,69,0,30.5,0,57.9,0,29.7,0,26.6,0
2004/7/1 2:30,27,0,70,0,30.5,0,59.3,0,29.8,0,26.7,0
2004/7/1 2:45,26.9,0,70,0,30.6,0,60.3,0,29.8,0,26.7,0
2004/7/1 3:00,26.7,0,70,0,30.6,0,60.6,0,29.8,0,26.8,0
2004/7/1 3:15,26.6,0,70,0,30.7,0,61,0,29.8,0,26.8,0
2004/7/1 3:30,26.5,0,70,0,30.7,0,61.2,0,29.8,0,26.9,0
2004/7/1 3:45,26.6,0,70,0,30.7,0,60.7,0,29.8,0,26.9,0
2004/7/1 4:00,26.7,0,69,0,30.7,0,61.4,0,29.8,0,27,0
2004/7/1 4:15,26.7,0,68,0,30.7,0,60.9,0,29.8,0,27,0
2004/7/1 4:30,26.5,0,68,0,30.8,0,60.5,0,29.8,0,27.1,0
2004/7/1 4:45,26.4,0,68,0,30.8,0,60.5,0,29.8,0,27.1,0
2004/7/1 5:00,26.4,0,69,0,30.8,0,61.2,0,29.8,0,27.2,0
2004/7/1 5:15,26.4,0,68,0,30.1,0,57.2,0,29.8,0,27,0
2004/7/1 5:30,26.4,0,68,0,29.6,0,58.1,0,29.7,0,27,0
2004/7/1 5:45,26.4,0,69,0,29.6,0,59.4,0,29.6,0,27.1,0
2004/7/1 6:00,26.2,0,68,0,29.1,0,60.6,0,29.4,0,24.6,0
2004/7/1 6:15,26.1,0,67,0,28.9,0,61.1,0,29.3,0,24.7,0
2004/7/1 6:30,26.1,0,67,0,29.2,0,61.8,0,29.3,0,24.6,0
2004/7/1 6:45,26.3,0,67,0,28.8,0,60.6,0,29.2,0,24.5,0
2004/7/1 7:00,26.4,0,66,0,29,0,62,0,29.2,0,24.6,0
2004/7/1 7:15,26.6,0,66,0,29.1,0,61.4,0,29.2,0,24.7,0
2004/7/1 7:30,26.6,0,65,0,29.3,0,61.3,0,29.3,0,24.3,0
2004/7/1 7:45,27.2,0,64,0,29.4,0,61.6,0,29.3,0,24.4,0
2004/7/1 8:00,27.4,0,62,0,29.5,0,61.4,0,29.4,0,24.4,0
2004/7/1 8:15,27.6,0,62,0,29.6,0,61.4,0,29.5,0,24.5,0
2004/7/1 8:30,29,0,59,0,29.7,0,61.4,0,29.5,0,24.6,0
2004/7/1 8:45,30.1,0,56,0,29.8,0,61.4,0,29.6,0,24.6,0
2004/7/1 9:00,31.7,0,51,0,29.9,0,61.3,0,29.6,0,24.7,0
2004/7/1 9:15,32.9,0,47,0,30,0,61.1,0,29.6,0,24.8,0
2004/7/1 9:30,34.4,0,43,0,30.1,0,61,0,29.7,0,24.8,0
2004/7/1 9:45,35.8,0,39,0,30.2,0,61,0,29.7,0,24.9,0
2004/7/1 10:00,36.5,0,36,0,30.3,0,60.9,0,29.7,0,24.9,0
2004/7/1 10:15,37.3,0,34,0,30.3,0,60.7,0,29.7,0,25,0
2004/7/1 10:30,38.4,0,33,0,30.4,0,60.9,0,29.7,0,25.1,0
2004/7/1 10:45,39,0,31,0,30.5,0,60.8,0,29.7,0,25.2,0
2004/7/1 11:00,38.8,0,30,0,30.5,0,60.7,0,29.8,0,25.2,0
2004/7/1 11:15,36.8,0,33,0,30.6,0,60.5,0,29.8,0,25.3,0
2004/7/1 11:30,35,0,38,0,30.7,0,60.4,0,29.8,0,25.4,0
2004/7/1 11:45,34.1,0,40,0,30.7,0,60.3,0,29.8,0,25.5,0
2004/7/1 12:00,33.5,0,41,0,30.8,0,60.2,0,29.8,0,25.5,0
2004/7/1 12:15,32.8,0,44,0,30.9,0,60.1,0,29.9,0,25.6,0
2004/7/1 12:30,32.4,0,46,0,30.9,0,60.1,0,29.9,0,25.7,0
2004/7/1 12:45,32.1,0,47,0,31,0,60,0,29.9,0,25.8,0
2004/7/1 13:00,32,0,48,0,31.1,0,59.9,0,30,0,25.8,0
2004/7/1 13:15,31.6,0,49,0,31.1,0,59.7,0,30,0,25.9,0
2004/7/1 13:30,31.4,0,50,0,31.2,0,59.5,0,30,0,26,0
2004/7/1 13:45,31.2,0,51,0,31.3,0,59.2,0,30.1,0,26.1,0
2004/7/1 14:00,31,0,52,0,31.4,0,59.2,0,30.1,0,26.1,0
2004/7/1 14:15,30.9,0,52,0,31.5,0,59.2,0,30.2,0,26.2,0
2004/7/1 14:30,30.8,0,52,0,31.6,0,59,0,30.2,0,26.3,0
2004/7/1 14:45,30.5,0,54,0,31.7,0,58.9,0,30.3,0,26.3,0
2004/7/1 15:00,30.5,0,55,0,31.7,0,58.7,0,30.3,0,26.4,0
2004/7/1 15:15,30.4,0,55,0,31.8,0,58.6,0,30.4,0,26.5,0
2004/7/1 15:30,30.3,0,56,0,31.9,0,58.5,0,30.5,0,26.5,0
2004/7/1 15:45,30.3,0,56,0,32.1,0,58.3,0,30.5,0,26.6,0
2004/7/1 16:00,30.4,0,56,0,32.2,0,58.2,0,30.6,0,26.7,0
2004/7/1 16:15,30.6,0,56,0,32.3,0,58.1,0,30.7,0,26.7,0
2004/7/1 16:30,30.5,0,56,0,31.7,0,58.7,0,30.7,0,26.8,0
2004/7/1 16:45,30.4,0,56,0,32.1,0,58.5,0,30.7,0,26.9,0
2004/7/1 17:00,30.2,0,57,0,32.2,0,58.8,0,30.8,0,26.9,0
2004/7/1 17:15,30.2,0,58,0,32.4,0,57.9,0,30.8,0,27,0
2004/7/1 17:30,30.1,0,58,0,32.6,0,57.9,0,30.9,0,27.1,0
2004/7/1 17:45,30.1,0,59,0,32.6,0,57.7,0,30.9,0,27.1,0
2004/7/1 18:00,30.3,0,58,0,32.7,0,57.4,0,31,0,27.2,0
2004/7/1 18:15,30.3,0,58,0,32.7,0,57.1,0,31.1,0,27.2,0
2004/7/1 18:30,30,0,58,0,32.6,0,56.7,0,31.2,0,27.3,0
2004/7/1 18:45,29.6,0,59,0,32.6,0,57.7,0,31.3,0,27.8,0
2004/7/1 19:00,29.5,0,59,0,32.6,0,57.4,0,31.3,0,27.9,0
2004/7/1 19:15,29.2,0,60,0,31.5,0,56.8,0,31.3,0,27.9,0
2004/7/1 19:30,29.1,0,60,0,30.6,0,59.6,0,31.1,0,28,0
2004/7/1 19:45,29,0,60,0,30,0,61.8,0,30.9,0,25.7,0
2004/7/1 20:00,28.9,0,60,0,29.6,0,66.4,0,30.8,0,25,0
2004/7/1 20:15,28.9,0,61,0,30.3,0,65.7,0,30.6,0,25.1,0
2004/7/1 20:30,28.8,0,61,0,28.5,0,62.2,0,30.4,0,25.2,0
2004/7/1 20:45,28.8,0,61,0,28.5,0,60,0,30.2,0,25.3,0
2004/7/1 21:00,28.8,0,62,0,28.7,0,56.5,0,30.1,0,25.4,0
2004/7/1 21:15,28.9,0,61,0,28.3,0,53.1,0,30.1,0,25.5,0
2004/7/1 21:30,28.9,0,61,0,28.1,0,52.3,0,30.2,0,25.5,0
2004/7/1 21:45,28.7,0,61,0,28,0,53.1,0,30.3,0,24.5,0
2004/7/1 22:00,28.6,0,61,0,28.1,0,51.4,0,30,0,24.8,0
2004/7/1 22:15,28.5,0,62,0,28.2,0,51,0,30,0,24.8,0
2004/7/1 22:30,28.6,0,62,0,28.2,0,50.9,0,30.2,0,24.9,0
2004/7/1 22:45,28.6,0,61,0,28.1,0,50.8,0,30.2,0,25,0
2004/7/1 23:00,28.4,0,62,0,28,0,50.5,0,30,0,25.1,0
2004/7/1 23:15,28.3,0,62,0,28.1,0,51.5,0,29.7,0,25.1,0
2004/7/1 23:30,28.2,0,63,0,28.2,0,56.9,0,29.4,0,25.2,0
2004/7/1 23:45,28.1,0,63,0,28.3,0,55.4,0,29.5,0,25.3,0
2004/7/2 0:00,28.1,0,64,0,28.2,0,54.9,0,29.5,0,25.4,0
2004/7/2 0:15,28.1,0,63,0,28.2,0,57.4,0,29.7,0,25.5,0
2004/7/2 0:30,28,0,64,0,28.9,0,57.3,0,29.6,0,25.5,0
2004/7/2 0:45,27.9,0,64,0,29.1,0,59.2,0,29.5,0,25.6,0
2004/7/2 1:00,27.9,0,65,0,29.3,0,60.3,0,29.5,0,25.6,0
2004/7/2 1:15,27.8,0,65,0,29.5,0,60.5,0,29.6,0,25.7,0
2004/7/2 1:30,27.7,0,65,0,29.7,0,60.2,0,29.6,0,25.7,0
2004/7/2 1:45,27.6,0,66,0,29.8,0,60.5,0,29.7,0,25.8,0
2004/7/2 2:00,27.6,0,66,0,29.9,0,61.3,0,29.7,0,25.9,0
2004/7/2 2:15,27.6,0,66,0,30,0,61.2,0,29.7,0,25.9,0
2004/7/2 2:30,27.5,0,66,0,30.1,0,61.4,0,29.7,0,26,0
2004/7/2 2:45,27.2,0,66,0,30.2,0,61.6,0,29.8,0,26.1,0
2004/7/2 3:00,26.9,0,66,0,30.3,0,61.5,0,29.8,0,26.1,0
2004/7/2 3:15,26.7,0,68,0,30.3,0,61.6,0,29.8,0,26.2,0
2004/7/2 3:30,26.6,0,69,0,30.4,0,61.1,0,29.8,0,26.2,0
2004/7/2 3:45,26.5,0,69,0,30.4,0,60.9,0,29.8,0,26.3,0
2004/7/2 4:00,26.3,0,69,0,30.5,0,61.2,0,29.8,0,26.4,0
2004/7/2 4:15,26.2,0,70,0,30.5,0,61.5,0,29.8,0,26.4,0
2004/7/2 4:30,26.4,0,70,0,30.6,0,61.8,0,29.8,0,26.5,0
2004/7/2 4:45,26.4,0,71,0,30.6,0,62.5,0,29.8,0,26.6,0
2004/7/2 5:00,26.4,0,71,0,30.6,0,63,0,29.8,0,26.6,0
2004/7/2 5:15,26.2,0,70,0,30.1,0,57,0,29.8,0,27,0
2004/7/2 5:30,26.4,0,70,0,29.8,0,56,0,29.7,0,27,0
2004/7/2 5:45,26.2,0,70,0,29.6,0,54,0,29.6,0,27.1,0
2004/7/2 6:00,26,0,70,0,29.5,0,53.8,0,29.5,0,27.2,0
2004/7/2 6:15,25.9,0,71,0,29.6,0,59.9,0,29.4,0,24.8,0
2004/7/2 6:30,25.9,0,72,0,29.8,0,60.5,0,29.3,0,24.8,0
2004/7/2 6:45,26.1,0,72,0,30.1,0,61.3,0,29.1,0,24.4,0
2004/7/2 7:00,26.5,0,71,0,30.1,0,60.4,0,29.1,0,24.4,0
2004/7/2 7:15,26.7,0,70,0,30,0,60.5,0,29,0,24.6,0
2004/7/2 7:30,27.1,0,69,0,30.1,0,60.7,0,29,0,24.7,0
2004/7/2 7:45,27.5,0,67,0,30.3,0,60.3,0,29.1,0,24.8,0
2004/7/2 8:00,28,0,66,0,30.4,0,60.1,0,29.2,0,24.9,0
2004/7/2 8:15,29,0,62,0,30.5,0,60.1,0,29.3,0,25,0
2004/7/2 8:30,29.2,0,59,0,30.5,0,60.1,0,29.4,0,25,0
2004/7/2 8:45,29.7,0,57,0,30.6,0,60.1,0,29.5,0,25.1,0
2004/7/2 9:00,30.3,0,56,0,30.6,0,60,0,29.5,0,25.2,0
2004/7/2 9:15,29.9,0,54,0,30.7,0,59.9,0,29.6,0,25.2,0
2004/7/2 9:30,29.7,0,55,0,30.7,0,60,0,29.6,0,25.3,0
2004/7/2 9:45,29.5,0,56,0,30.8,0,59.9,0,29.6,0,25.4,0
2004/7/2 10:00,29.8,0,56,0,30.9,0,59.8,0,29.7,0,25.5,0
2004/7/2 10:15,30.3,0,57,0,30.9,0,59.8,0,29.7,0,25.5,0
2004/7/2 10:30,31.7,0,54,0,31,0,59.8,0,29.7,0,25.6,0
2004/7/2 10:45,31.9,0,53,0,31.1,0,59.7,0,29.8,0,25.7,0
2004/7/2 11:00,32.2,0,52,0,31.1,0,59.7,0,29.8,0,25.7,0
2004/7/2 11:15,32.2,0,51,0,31.2,0,59.6,0,29.9,0,25.8,0
2004/7/2 11:30,32.5,0,52,0,31.2,0,59.6,0,29.9,0,25.9,0
2004/7/2 11:45,32.7,0,51,0,31.3,0,59.6,0,29.9,0,26,0
2004/7/2 12:00,32.5,0,51,0,31.3,0,59.6,0,30,0,26,0
2004/7/2 12:15,32.6,0,51,0,31.4,0,59.4,0,30,0,26.1,0
2004/7/2 12:30,32.4,0,52,0,31.5,0,59.2,0,30.1,0,26.2,0
2004/7/2 12:45,32.1,0,52,0,31.5,0,59.1,0,30.1,0,26.2,0
2004/7/2 13:00,32,0,51,0,31.6,0,58.9,0,30.2,0,26.3,0
2004/7/2 13:15,31.9,0,52,0,31.7,0,58.8,0,30.2,0,26.4,0
2004/7/2 13:30,31.7,0,52,0,31.8,0,58.9,0,30.2,0,26.4,0
2004/7/2 13:45,31.5,0,53,0,31.8,0,58.9,0,30.3,0,26.5,0
2004/7/2 14:00,31.2,0,53,0,31.9,0,58.9,0,30.4,0,26.6,0
2004/7/2 14:15,31.2,0,54,0,32,0,58.8,0,30.4,0,26.6,0
2004/7/2 14:30,31.3,0,55,0,32.1,0,58.7,0,30.5,0,26.7,0
2004/7/2 14:45,31.1,0,56,0,32.2,0,58.5,0,30.5,0,26.8,0
2004/7/2 15:00,31.3,0,55,0,32.3,0,58.5,0,30.6,0,26.8,0
2004/7/2 15:15,31.3,0,56,0,32.4,0,58.4,0,30.7,0,26.9,0
2004/7/2 15:30,31.4,0,55,0,32.5,0,58.5,0,30.8,0,27,0
2004/7/2 15:45,31.8,0,55,0,32.6,0,58.4,0,30.9,0,27.6,0
2004/7/2 16:00,31.8,0,53,0,32.8,0,61.1,0,31,0,27.1,0
2004/7/2 16:15,31.6,0,56,0,32.8,0,59,0,31.1,0,27.1,0
2004/7/2 16:30,31.6,0,56,0,32.3,0,59.9,0,31.1,0,27.2,0
2004/7/2 16:45,31.7,0,56,0,31.5,0,62.8,0,31.2,0,27.3,0
2004/7/2 17:00,31.6,0,56,0,32.3,0,61,0,31.2,0,27.3,0
2004/7/2 17:15,31.5,0,57,0,32.5,0,60.3,0,31.3,0,27.4,0
2004/7/2 17:30,31.4,0,58,0,32.6,0,59.8,0,31.4,0,27.5,0
2004/7/2 17:45,31.3,0,59,0,32.8,0,59.6,0,31.5,0,27.5,0
2004/7/2 18:00,31.2,0,59,0,32.9,0,59.2,0,31.5,0,27.6,0
2004/7/2 18:15,31.3,0,59,0,33.2,0,58.9,0,31.6,0,27.6,0
2004/7/2 18:30,31.2,0,59,0,33.3,0,58.9,0,31.6,0,27.9,0
2004/7/2 18:45,30.8,0,61,0,33.4,0,58.6,0,31.7,0,27.4,0
2004/7/2 19:00,30.8,0,61,0,33.4,0,58.4,0,31.8,0,27.5,0
2004/7/2 19:15,30.9,0,61,0,33.4,0,58.3,0,31.8,0,27.5,0
2004/7/2 19:30,30.7,0,63,0,33.5,0,59.2,0,31.9,0,27.6,0
2004/7/2 19:45,30.6,0,63,0,32.8,0,59.8,0,31.9,0,27.8,0
2004/7/2 20:00,30.6,0,63,0,32.8,0,61.3,0,32,0,27.9,0
2004/7/2 20:15,30.4,0,63,0,31.8,0,52.3,0,31.9,0,27.9,0
2004/7/2 20:30,30,0,64,0,31.4,0,47.4,0,31.9,0,28,0
2004/7/2 20:45,30,0,65,0,30.7,0,45.8,0,31.9,0,28,0
2004/7/2 21:00,30.1,0,65,0,29.8,0,45,0,31.9,0,28.1,0
2004/7/2 21:15,30,0,66,0,29.4,0,45.8,0,31.9,0,28.1,0
2004/7/2 21:30,30.3,0,66,0,29.3,0,44.5,0,31.9,0,28.2,0
2004/7/2 21:45,30.5,0,64,0,29,0,44.4,0,31.9,0,28.3,0
2004/7/2 22:00,30.6,0,63,0,28.9,0,47.8,0,31.9,0,28.3,0
2004/7/2 22:15,30.6,0,62,0,29.6,0,48.7,0,31.6,0,25.2,0
2004/7/2 22:30,30.6,0,61,0,30,0,50,0,31.2,0,25.3,0
2004/7/2 22:45,30.5,0,60,0,30.3,0,49.5,0,31,0,25.4,0
2004/7/2 23:00,30.5,0,60,0,30.2,0,47.1,0,31,0,25.5,0
2004/7/2 23:15,30.4,0,61,0,30.1,0,46.3,0,31.2,0,25.6,0
2004/7/2 23:30,30.2,0,62,0,30.2,0,48.1,0,31.1,0,26.3,0
2004/7/2 23:45,30.2,0,62,0,30.1,0,47.5,0,31.3,0,26.4,0
2004/7/3 0:00,30.4,0,62,0,30.1,0,48.4,0,31.5,0,26.8,0
2004/7/3 0:15,30.5,0,62,0,30,0,46.5,0,31.7,0,26.8,0
2004/7/3 0:30,30.4,0,63,0,29.7,0,44.4,0,31.7,0,26.9,0
2004/7/3 0:45,30.4,0,64,0,29.6,0,43.4,0,31.7,0,26.9,0
2004/7/3 1:00,30.5,0,64,0,29.4,0,43.1,0,31.7,0,27.3,0
2004/7/3 1:15,30.5,0,64,0,29.3,0,43.1,0,31.5,0,26.3,0
2004/7/3 1:30,30.5,0,64,0,29.1,0,42.9,0,31.1,0,26.4,0
2004/7/3 1:45,30.4,0,64,0,29.4,0,44.2,0,30.8,0,26.4,0
2004/7/3 2:00,30.3,0,65,0,29.9,0,50.7,0,30.5,0,26.6,0
2004/7/3 2:15,30.3,0,65,0,30.2,0,54.2,0,30.1,0,26.7,0
2004/7/3 2:30,30.1,0,65,0,30.4,0,54.6,0,29.9,0,26.8,0
2004/7/3 2:45,30.1,0,65,0,30.6,0,55.3,0,30,0,26.8,0
2004/7/3 3:00,30.1,0,65,0,30.9,0,55.4,0,30.2,0,26.9,0
2004/7/3 3:15,30.2,0,64,0,31,0,54.4,0,30.5,0,26.9,0
2004/7/3 3:30,30.1,0,65,0,31.1,0,53.9,0,30.2,0,27.3,0
2004/7/3 3:45,30.1,0,65,0,31.3,0,53.9,0,29.9,0,27.1,0
2004/7/3 4:00,30,0,66,0,31.4,0,53.8,0,30,0,27.2,0
2004/7/3 4:15,29.8,0,68,0,31.5,0,53.9,0,30,0,27.2,0
2004/7/3 4:30,29.6,0,71,0,31.6,0,54.2,0,29.9,0,27.3,0
2004/7/3 4:45,29.2,0,73,0,31.7,0,54.4,0,29.9,0,27.3,0
2004/7/3 5:00,29,0,74,0,31.8,0,54.3,0,29.9,0,27.4,0
2004/7/3 5:15,28.9,0,75,0,31.8,0,54.5,0,29.9,0,27.4,0
2004/7/3 5:30,28.8,0,75,0,31.9,0,54.7,0,29.9,0,27.5,0
2004/7/3 5:45,28.9,0,75,0,32,0,54.9,0,29.9,0,27.5,0
2004/7/3 6:00,28.8,0,76,0,32,0,54.9,0,29.9,0,27.6,0
2004/7/3 6:15,28.8,0,76,0,32,0,61.7,0,30,0,27.6,0
2004/7/3 6:30,28.9,0,75,0,31.4,0,65.6,0,30.1,0,27.3,0
2004/7/3 6:45,29.2,0,76,0,31.3,0,64.8,0,30.2,0,27.3,0
2004/7/3 7:00,29.5,0,75,0,31.4,0,64.4,0,30.3,0,27.4,0
2004/7/3 7:15,29.6,0,74,0,31.6,0,64.3,0,30.5,0,27.5,0
2004/7/3 7:30,30.3,0,73,0,31.6,0,63.8,0,30.6,0,26.4,0
2004/7/3 7:45,31.2,0,68,0,31.7,0,63.8,0,30.7,0,26.1,0
2004/7/3 8:00,31.7,0,64,0,31.9,0,63.7,0,30.9,0,25.9,0
2004/7/3 8:15,32.6,0,61,0,31.8,0,62.6,0,31,0,25.9,0
2004/7/3 8:30,33.7,0,57,0,32,0,63.4,0,31,0,25.7,0
2004/7/3 8:45,34.4,0,53,0,31.8,0,65.1,0,31,0,26.2,0
2004/7/3 9:00,35.2,0,50,0,31.7,0,66,0,30.9,0,26.3,0
2004/7/3 9:15,37.2,0,46,0,31.6,0,66,0,30.9,0,26.3,0
2004/7/3 9:30,39.8,0,39,0,31.3,0,65.9,0,30.9,0,26.4,0
2004/7/3 9:45,40.7,0,37,0,31.6,0,64.6,0,30.8,0,26.9,0
2004/7/3 10:00,42.9,0,33,0,32,0,63.3,0,30.8,0,26.9,0
2004/7/3 10:15,43.9,0,30,0,32.2,0,62.9,0,31.1,0,27,0
2004/7/3 10:30,43.5,0,29,0,32.4,0,62.4,0,31.2,0,27.1,0
2004/7/3 10:45,43.9,0,27,0,32.5,0,62.1,0,31.4,0,27.1,0
2004/7/3 11:00,42.3,0,31,0,32.6,0,61.8,0,31.5,0,27.2,0
2004/7/3 11:15,40.2,0,34,0,32.7,0,61.4,0,31.5,0,27.2,0
2004/7/3 11:30,38.3,0,38,0,32.8,0,61.1,0,31.5,0,27.3,0
2004/7/3 11:45,37.2,0,42,0,32.9,0,60.8,0,31.5,0,27.4,0
2004/7/3 12:00,37,0,43,0,33,0,60.9,0,31.6,0,27.4,0
2004/7/3 12:15,36.5,0,44,0,33,0,61.4,0,31.7,0,27.5,0
2004/7/3 12:30,36.2,0,45,0,33.1,0,61.6,0,31.8,0,27.6,0
2004/7/3 12:45,35.7,0,48,0,33.2,0,62,0,31.7,0,27.6,0
2004/7/3 13:00,35.2,0,50,0,33.2,0,62.5,0,31.8,0,27.7,0
2004/7/3 13:15,34.7,0,53,0,31.1,0,60.7,0,31.8,0,27.8,0
2004/7/3 13:30,35,0,53,0,30.3,0,55.7,0,31.7,0,27.8,0
2004/7/3 13:45,34.6,0,55,0,29.6,0,51.5,0,31.7,0,27.5,0
2004/7/3 14:00,33.5,0,57,0,29.3,0,49.9,0,31.7,0,27.5,0
2004/7/3 14:15,33.3,0,58,0,29.4,0,48.9,0,31.8,0,27.7,0
2004/7/3 14:30,33.7,0,57,0,29.4,0,46.6,0,31.8,0,27.7,0
2004/7/3 14:45,34.3,0,55,0,29.3,0,46.4,0,31.8,0,27.8,0
2004/7/3 15:00,34.8,0,53,0,29.4,0,49.2,0,31.8,0,27.5,0
2004/7/3 15:15,34.6,0,52,0,29.2,0,47.7,0,31.8,0,27.5,0
2004/7/3 15:30,34.2,0,53,0,29.3,0,50.7,0,31.8,0,27.6,0
2004/7/3 15:45,34,0,53,0,29.1,0,46.6,0,31.6,0,27.7,0
2004/7/3 16:00,33.6,0,55,0,29,0,50.2,0,31.6,0,27.7,0
2004/7/3 16:15,33.3,0,57,0,30.1,0,55.7,0,31.6,0,26.7,0
2004/7/3 16:30,33.4,0,54,0,31,0,54.5,0,31.4,0,26.7,0
2004/7/3 16:45,33.4,0,53,0,31.7,0,54,0,31.5,0,26.8,0
2004/7/3 17:00,33.5,0,52,0,31,0,53.4,0,31.5,0,26.9,0
2004/7/3 17:15,33.5,0,54,0,30.4,0,50.8,0,31.5,0,26.9,0
2004/7/3 17:30,33.2,0,56,0,29.9,0,48.7,0,31.6,0,27,0
2004/7/3 17:45,32.9,0,57,0,29.9,0,48.9,0,31.7,0,26.8,0
2004/7/3 18:00,33.3,0,56,0,29.6,0,46.6,0,31.7,0,26.9,0
2004/7/3 18:15,33.5,0,56,0,29.7,0,47.3,0,31.8,0,27,0
2004/7/3 18:30,33.5,0,57,0,29.6,0,46.6,0,31.8,0,27,0
2004/7/3 18:45,33.5,0,57,0,29.5,0,46.6,0,31.9,0,27.1,0
2004/7/3 19:00,33.5,0,56,0,29.4,0,46.2,0,32,0,27.2,0
2004/7/3 19:15,33.4,0,57,0,29.8,0,45.5,0,32,0,27.2,0
2004/7/3 19:30,33,0,57,0,29.7,0,46.2,0,32.1,0,27.3,0
2004/7/3 19:45,33,0,57,0,29.7,0,47.2,0,32.1,0,27.4,0
2004/7/3 20:00,32.9,0,58,0,29.5,0,47.5,0,32.1,0,27.5,0
2004/7/3 20:15,32.7,0,59,0,29.4,0,47.4,0,32.1,0,27.6,0
2004/7/3 20:30,32.5,0,59,0,29.3,0,46.7,0,32.1,0,27.6,0
2004/7/3 20:45,32.4,0,59,0,29.4,0,50.2,0,32.2,0,27.1,0
2004/7/3 21:00,32.2,0,60,0,29.4,0,51.7,0,32.2,0,27.1,0
2004/7/3 21:15,31.7,0,62,0,30.2,0,50.2,0,32.2,0,26.6,0
2004/7/3 21:30,31.5,0,62,0,30.5,0,46.6,0,31.9,0,26.6,0
2004/7/3 21:45,31.3,0,64,0,30.7,0,45.1,0,31.6,0,26.7,0
2004/7/3 22:00,31.3,0,64,0,30.8,0,44.3,0,31.3,0,26.8,0
2004/7/3 22:15,31,0,64,0,31.1,0,44.4,0,31,0,27.4,0
2004/7/3 22:30,30.8,0,64,0,30.5,0,45.8,0,30.8,0,27.4,0
2004/7/3 22:45,31,0,64,0,29.8,0,43.4,0,30.9,0,27.4,0
2004/7/3 23:00,31.2,0,63,0,29.4,0,43.9,0,31.1,0,27.5,0
2004/7/3 23:15,31.3,0,62,0,28.9,0,40.2,0,31.1,0,27.5,0
2004/7/3 23:30,31.4,0,61,0,28.6,0,39.8,0,30.8,0,27.6,0
2004/7/3 23:45,31.4,0,62,0,28.3,0,40.3,0,30.5,0,27.6,0
2004/7/4 0:00,31.2,0,63,0,28.3,0,43,0,30.3,0,27.7,0
2004/7/4 0:15,31,0,63,0,28.2,0,44,0,30.1,0,27.7,0
2004/7/4 0:30,30.8,0,63,0,28.2,0,44.5,0,29.9,0,27.8,0
2004/7/4 0:45,30.7,0,61,0,28.1,0,44.9,0,29.8,0,27.8,0
2004/7/4 1:00,30.6,0,61,0,28,0,45.8,0,29.6,0,27.8,0
2004/7/4 1:15,30.3,0,62,0,28.9,0,46.3,0,29.6,0,27.9,0
2004/7/4 1:30,30.3,0,62,0,29.4,0,47.2,0,29.8,0,27.9,0
2004/7/4 1:45,30.1,0,61,0,29.8,0,47.7,0,30,0,28,0
2004/7/4 2:00,30,0,61,0,30.1,0,48.4,0,30.1,0,27.7,0
2004/7/4 2:15,29.9,0,62,0,30.3,0,49.1,0,30.2,0,27.7,0
2004/7/4 2:30,30,0,61,0,30.5,0,49.4,0,30,0,27.7,0
2004/7/4 2:45,30,0,60,0,30.7,0,49.6,0,29.7,0,27.8,0
2004/7/4 3:00,30,0,60,0,30.8,0,49.9,0,29.5,0,27.8,0
2004/7/4 3:15,29.9,0,60,0,30.9,0,50,0,29.4,0,27.8,0
2004/7/4 3:30,29.8,0,60,0,31,0,50.3,0,29.5,0,27.9,0
2004/7/4 3:45,29.6,0,61,0,31.2,0,50.6,0,29.7,0,27.9,0
2004/7/4 4:00,29.5,0,62,0,31.3,0,50.7,0,29.8,0,27.9,0
2004/7/4 4:15,29.4,0,62,0,31.3,0,51,0,29.9,0,28,0
2004/7/4 4:30,29.4,0,62,0,31.5,0,51.1,0,30,0,28,0
2004/7/4 4:45,29.3,0,62,0,31.5,0,51.2,0,30,0,28,0
2004/7/4 5:00,29.3,0,62,0,31.6,0,51.2,0,30.1,0,28.1,0
2004/7/4 5:15,29.1,0,63,0,31.7,0,51.1,0,30,0,28.1,0
2004/7/4 5:30,29.1,0,63,0,31.7,0,51.2,0,29.7,0,28.1,0
2004/7/4 5:45,29.1,0,63,0,31.8,0,51.2,0,29.4,0,28.1,0
2004/7/4 6:00,29,0,63,0,31.8,0,51.1,0,29.3,0,28.2,0
2004/7/4 6:15,29,0,64,0,31.9,0,51.1,0,29.1,0,28.2,0
2004/7/4 6:30,29,0,64,0,32,0,51.1,0,29,0,28.3,0
2004/7/4 6:45,29.1,0,65,0,32,0,51.1,0,28.9,0,28.3,0
2004/7/4 7:00,29.2,0,65,0,32.1,0,52.2,0,28.7,0,28.3,0
2004/7/4 7:15,29.3,0,64,0,32.1,0,53.9,0,28.6,0,28.3,0
2004/7/4 7:30,29.2,0,64,0,32,0,55.3,0,28.5,0,28.6,0
2004/7/4 7:45,29.3,0,64,0,31.7,0,54.6,0,28.6,0,26.4,0
2004/7/4 8:00,29.2,0,64,0,31.7,0,56.1,0,29.1,0,26,0
2004/7/4 8:15,29.4,0,64,0,31.7,0,55.7,0,29.4,0,26.1,0
2004/7/4 8:30,29.5,0,63,0,31.7,0,56.1,0,29.7,0,26.1,0
2004/7/4 8:45,29.7,0,63,0,31.7,0,55.7,0,29.8,0,26.4,0
2004/7/4 9:00,29.9,0,60,0,31.7,0,55.9,0,29.9,0,25.9,0
2004/7/4 9:15,30,0,58,0,31.5,0,55.7,0,29.6,0,26,0
2004/7/4 9:30,30.1,0,56,0,31.5,0,56.1,0,29.7,0,26.2,0
2004/7/4 9:45,30.3,0,56,0,30.6,0,59.1,0,29.7,0,26.2,0
2004/7/4 10:00,30.4,0,56,0,31.3,0,57,0,29.7,0,26,0
2004/7/4 10:15,30.4,0,57,0,31.5,0,57.4,0,29.8,0,26,0
2004/7/4 10:30,30.6,0,56,0,31.5,0,56,0,29.8,0,26.1,0
2004/7/4 10:45,31.1,0,54,0,31.6,0,55.2,0,29.8,0,26.1,0
2004/7/4 11:00,30.8,0,55,0,31.6,0,54.8,0,29.7,0,26.2,0
2004/7/4 11:15,30.5,0,56,0,31.8,0,54.3,0,29.7,0,26.7,0
2004/7/4 11:30,30.4,0,55,0,31.7,0,53.2,0,29.8,0,26.7,0
2004/7/4 11:45,30.6,0,54,0,30.5,0,47,0,29.8,0,26.9,0
2004/7/4 12:00,30.6,0,54,0,30.2,0,45,0,29.8,0,27,0
2004/7/4 12:15,30.5,0,55,0,29.8,0,46.7,0,29.8,0,27,0
2004/7/4 12:30,30.4,0,57,0,29.9,0,50.4,0,29.9,0,27.1,0
2004/7/4 12:45,30.3,0,58,0,30.7,0,51.5,0,29.8,0,27.1,0
2004/7/4 13:00,30.3,0,59,0,31,0,54.1,0,29.8,0,27.4,0
2004/7/4 13:15,30.2,0,60,0,31.2,0,55.4,0,29.9,0,27.4,0
2004/7/4 13:30,30.2,0,61,0,31.4,0,56.2,0,30,0,27.5,0
2004/7/4 13:45,29.9,0,64,0,31.6,0,59.5,0,30.1,0,27.5,0
2004/7/4 14:00,29.8,0,64,0,31.7,0,59.8,0,30.1,0,27.6,0
2004/7/4 14:15,29.6,0,67,0,31.5,0,55.4,0,30.1,0,27.6,0
2004/7/4 14:30,29.4,0,68,0,30.2,0,46.5,0,30.1,0,27.6,0
2004/7/4 14:45,29.4,0,68,0,29.7,0,45,0,29.8,0,27.7,0
2004/7/4 15:00,28.9,0,75,0,29.7,0,42.6,0,29.6,0,27.7,0
2004/7/4 15:15,29,0,73,0,29.7,0,45.7,0,29.4,0,27.8,0
2004/7/4 15:30,29,0,72,0,29.8,0,44.6,0,29.3,0,27.8,0
2004/7/4 15:45,29.1,0,71,0,28.9,0,44.9,0,29.3,0,27.8,0
2004/7/4 16:00,29.2,0,71,0,28.7,0,44.7,0,29.1,0,28.2,0
2004/7/4 16:15,29.2,0,71,0,28.4,0,44.3,0,29,0,28.2,0
2004/7/4 16:30,29.4,0,68,0,28.2,0,45.1,0,28.9,0,28.2,0
2004/7/4 16:45,29.8,0,65,0,28.9,0,46.9,0,28.7,0,28.2,0
2004/7/4 17:00,29.8,0,64,0,29.3,0,47.9,0,28.8,0,28.2,0
2004/7/4 17:15,29.6,0,67,0,29.5,0,49.4,0,29,0,28.3,0
2004/7/4 17:30,29,0,75,0,29.7,0,50.6,0,29.1,0,28.3,0
2004/7/4 17:45,28.6,0,77,0,29.9,0,52.2,0,29.2,0,28.3,0
2004/7/4 18:00,28.6,0,78,0,30.1,0,53.9,0,29.4,0,28.4,0
2004/7/4 18:15,28.6,0,79,0,30.2,0,53.2,0,29.4,0,28,0
2004/7/4 18:30,28.9,0,77,0,30.3,0,52.8,0,29.4,0,28.1,0
2004/7/4 18:45,29,0,75,0,30.5,0,53.1,0,29.5,0,28.1,0
2004/7/4 19:00,29.1,0,72,0,30.5,0,53.1,0,29.5,0,28.1,0
2004/7/4 19:15,29,0,69,0,30.6,0,53.3,0,29.5,0,28.1,0
2004/7/4 19:30,29,0,65,0,30.7,0,53.4,0,29.5,0,28.2,0
2004/7/4 19:45,29,0,63,0,30.7,0,53.5,0,29.6,0,28.2,0
2004/7/4 20:00,29,0,62,0,30.8,0,53.5,0,29.6,0,28.2,0
2004/7/4 20:15,29,0,61,0,30.8,0,54.5,0,29.6,0,27.1,0
2004/7/4 20:30,29,0,61,0,30.9,0,54.1,0,29.6,0,27.2,0
2004/7/4 20:45,29,0,60,0,30.9,0,55.6,0,29.6,0,27.2,0
2004/7/4 21:00,29,0,60,0,30.8,0,56.8,0,29.7,0,27.3,0
2004/7/4 21:15,29,0,61,0,30.5,0,55.8,0,29.8,0,27.3,0
2004/7/4 21:30,29,0,62,0,30.4,0,56,0,29.8,0,27.5,0
2004/7/4 21:45,28.9,0,59,0,30.2,0,54.3,0,29.8,0,27.5,0
2004/7/4 22:00,28.8,0,59,0,30.1,0,56.2,0,29.8,0,27.5,0
2004/7/4 22:15,28.7,0,62,0,30,0,55.6,0,29.8,0,26.8,0
2004/7/4 22:30,28.8,0,61,0,29.8,0,55.2,0,29.8,0,26.9,0
2004/7/4 22:45,28.7,0,62,0,29.7,0,55.6,0,29.8,0,26.9,0
2004/7/4 23:00,28.6,0,64,0,29.7,0,47.2,0,29.8,0,26.9,0
2004/7/4 23:15,28.5,0,64,0,29.5,0,44,0,29.5,0,27,0
2004/7/4 23:30,28.5,0,62,0,29.4,0,42.1,0,29.2,0,27,0
2004/7/4 23:45,28.4,0,59,0,29.2,0,40.8,0,29,0,27.1,0
2004/7/5 0:00,28.2,0,59,0,29,0,40.5,0,28.8,0,27.1,0
2004/7/5 0:15,28.2,0,58,0,29,0,44.8,0,28.6,0,27.1,0
2004/7/5 0:30,28.2,0,57,0,29,0,45.1,0,28.5,0,27.2,0
2004/7/5 0:45,28.2,0,57,0,29,0,45,0,28.4,0,27.2,0
2004/7/5 1:00,28.1,0,57,0,29.1,0,46.5,0,28.4,0,27.2,0
2004/7/5 1:15,28.1,0,57,0,29.2,0,48.2,0,28.5,0,27.3,0
2004/7/5 1:30,28,0,56,0,29.2,0,49.6,0,28.5,0,27.3,0
2004/7/5 1:45,28.1,0,56,0,29.3,0,50.7,0,28.6,0,27.3,0
2004/7/5 2:00,28,0,58,0,29.4,0,51.8,0,28.6,0,27.7,0
2004/7/5 2:15,28.1,0,58,0,29.4,0,52.3,0,28.6,0,27.7,0
2004/7/5 2:30,28,0,58,0,29.5,0,52.9,0,28.7,0,27.7,0
2004/7/5 2:45,28,0,58,0,29.6,0,53.6,0,28.7,0,27.7,0
2004/7/5 3:00,27.9,0,59,0,29.6,0,54,0,28.7,0,27.8,0
2004/7/5 3:15,27.8,0,60,0,29.7,0,54.3,0,28.8,0,27.8,0
2004/7/5 3:30,27.8,0,59,0,29.7,0,54.6,0,28.8,0,27.8,0
2004/7/5 3:45,27.9,0,58,0,29.8,0,55,0,28.8,0,27.8,0
2004/7/5 4:00,27.8,0,59,0,29.8,0,55.2,0,28.8,0,27.8,0
2004/7/5 4:15,27.7,0,59,0,29.9,0,55.4,0,28.8,0,27.8,0
2004/7/5 4:30,27.8,0,59,0,29.9,0,55.7,0,28.9,0,27.9,0
2004/7/5 4:45,27.7,0,60,0,29.9,0,55.8,0,28.9,0,27.9,0
2004/7/5 5:00,27.6,0,60,0,29.9,0,55.9,0,28.9,0,27.9,0
2004/7/5 5:15,27.6,0,60,0,30,0,56.2,0,28.9,0,27.9,0
2004/7/5 5:30,27.5,0,60,0,29.1,0,58.1,0,28.9,0,28.2,0
2004/7/5 5:45,27.6,0,59,0,28.9,0,58.9,0,28.8,0,28.2,0
2004/7/5 6:00,27.6,0,59,0,28.6,0,60.3,0,28.7,0,28.2,0
2004/7/5 6:15,27.6,0,59,0,28.2,0,61.1,0,28.6,0,28.2,0
2004/7/5 6:30,27.7,0,58,0,28.1,0,61.3,0,28.5,0,25.8,0
2004/7/5 6:45,27.6,0,58,0,28.5,0,61.3,0,28.5,0,25.8,0
2004/7/5 7:00,27.6,0,59,0,28,0,61.5,0,28.6,0,25.8,0
2004/7/5 7:15,27.7,0,58,0,28.3,0,61.1,0,28.6,0,25.9,0
2004/7/5 7:30,29.3,0,54,0,28.7,0,59.2,0,28.7,0,25.9,0
2004/7/5 7:45,29.5,0,52,0,29.1,0,60.4,0,28.8,0,26,0
2004/7/5 8:00,30.7,0,49,0,29.3,0,59.6,0,28.9,0,26,0
2004/7/5 8:15,31.2,0,47,0,29.5,0,59.1,0,29,0,26.1,0
2004/7/5 8:30,31.2,0,46,0,29.6,0,58.7,0,29.1,0,26.1,0
2004/7/5 8:45,31.3,0,46,0,29.7,0,58.3,0,29.1,0,26.2,0
2004/7/5 9:00,31.6,0,45,0,29.8,0,58,0,29.2,0,26.2,0
2004/7/5 9:15,31.7,0,45,0,29.9,0,57.7,0,29.2,0,26.3,0
2004/7/5 9:30,30.9,0,47,0,30,0,57.4,0,29.1,0,26.3,0
2004/7/5 9:45,30.7,0,48,0,30.1,0,57.1,0,29.1,0,26.4,0
2004/7/5 10:00,30.2,0,49,0,30.1,0,57,0,29.1,0,26.4,0
2004/7/5 10:15,29.9,0,50,0,30.2,0,57,0,29.1,0,26.5,0
2004/7/5 10:30,30,0,49,0,30.3,0,57,0,29.2,0,26.5,0
2004/7/5 10:45,30.1,0,49,0,30.3,0,57,0,29.2,0,26.6,0
2004/7/5 11:00,30.2,0,49,0,30.4,0,56.9,0,29.2,0,26.6,0
2004/7/5 11:15,30.2,0,49,0,30.5,0,56.8,0,29.2,0,26.7,0
2004/7/5 11:30,30.2,0,49,0,30.6,0,56.7,0,29.3,0,26.7,0
2004/7/5 11:45,30.3,0,49,0,30.7,0,56.6,0,29.3,0,26.8,0
2004/7/5 12:00,30.6,0,49,0,30.7,0,56,0,29.4,0,26.8,0
2004/7/5 12:15,30.6,0,48,0,30.8,0,55.8,0,29.4,0,26.9,0
2004/7/5 12:30,30.6,0,48,0,30.9,0,54.5,0,29.4,0,26.9,0
2004/7/5 12:45,30.8,0,43,0,30.9,0,54.1,0,29.4,0,27,0
2004/7/5 13:00,30.9,0,43,0,31,0,53.4,0,29.5,0,27,0